• In Germany
  • List of Countries
  • For 7 days
  • Water Temperature
  • Satellite Maps
  • Weather Map
  • Weather Widgets
  • user-avatar
    Login

    Hourly Weather Biatris

    Today, 18 September, Tuesday

    Time Temperature Precipitation Wind Pressure Humidity
    00:00 +21°C° 0 mm 3 mps 654 mmHg 27%
    01:00 +21°C° 0 mm 3 mps 653 mmHg 30%
    02:00 +20°C° 0 mm 3 mps 653 mmHg 35%
    03:00 +19°C° 0 mm 2 mps 653 mmHg 37%
    04:00 +19°C° 0 mm 2 mps 653 mmHg 38%
    05:00 +18°C° 0 mm 2 mps 653 mmHg 39%
    06:00 +20°C° 0 mm 2 mps 654 mmHg 34%
    07:00 +24°C° 0 mm 3 mps 654 mmHg 28%
    08:00 +27°C° 0 mm 3 mps 656 mmHg 22%
    09:00 +29°C° 0 mm 3 mps 656 mmHg 18%
    10:00 +32°C° 0 mm 2 mps 656 mmHg 14%
    11:00 +35°C° 0 mm 2 mps 657 mmHg 10%
    12:00 +36°C° 0 mm 2 mps 656 mmHg 9%
    13:00 +37°C° 0 mm 2 mps 656 mmHg 7%
    14:00 +37°C° 0 mm 2 mps 656 mmHg 6%
    15:00 +37°C° 0 mm 3 mps 656 mmHg 6%
    16:00 +36°C° 0 mm 3 mps 655 mmHg 7%
    17:00 +35°C° 0 mm 3 mps 655 mmHg 7%
    18:00 +31°C° 0 mm 3 mps 655 mmHg 9%
    19:00 +28°C° 0 mm 3 mps 655 mmHg 12%
    20:00 +25°C° 0 mm 3 mps 654 mmHg 15%
    21:00 +25°C° 0 mm 3 mps 655 mmHg 18%
    22:00 +24°C° 0 mm 3 mps 655 mmHg 21%
    23:00 +22°C° 0 mm 3 mps 655 mmHg 24%

    Tomorrow, 19 September, Wednesday

    Time Temperature Precipitation Wind Pressure Humidity
    00:00 +22°C° 0 mm 3 mps 655 mmHg 26%
    01:00 +21°C° 0 mm 3 mps 654 mmHg 28%
    02:00 +21°C° 0 mm 3 mps 654 mmHg 30%
    03:00 +20°C° 0 mm 3 mps 654 mmHg 32%
    04:00 +20°C° 0 mm 3 mps 654 mmHg 33%
    05:00 +19°C° 0 mm 3 mps 654 mmHg 34%
    06:00 +21°C° 0 mm 3 mps 655 mmHg 30%
    07:00 +23°C° 0 mm 4 mps 655 mmHg 27%
    08:00 +27°C° 0 mm 5 mps 656 mmHg 23%
    09:00 +29°C° 0 mm 4 mps 656 mmHg 19%
    10:00 +32°C° 0 mm 4 mps 657 mmHg 15%
    11:00 +34°C° 0 mm 4 mps 657 mmHg 11%
    12:00 +35°C° 0 mm 3 mps 657 mmHg 10%
    13:00 +36°C° 0 mm 3 mps 656 mmHg 9%
    14:00 +37°C° 0 mm 3 mps 656 mmHg 8%
    15:00 +36°C° 0 mm 3 mps 655 mmHg 9%
    16:00 +35°C° 0 mm 3 mps 655 mmHg 10%
    17:00 +35°C° 0 mm 4 mps 655 mmHg 10%
    18:00 +31°C° 0 mm 3 mps 655 mmHg 13%
    19:00 +28°C° 0 mm 3 mps 655 mmHg 16%
    20:00 +26°C° 0 mm 3 mps 654 mmHg 19%
    21:00 +25°C° 0 mm 3 mps 655 mmHg 20%
    22:00 +24°C° 0 mm 3 mps 655 mmHg 21%
    23:00 +24°C° 0 mm 3 mps 655 mmHg 23%

    Day after tomorrow, 20 September, Thursday

    Time Temperature Precipitation Wind Pressure Humidity
    00:00 +22°C° 0 mm 3 mps 655 mmHg 23%
    01:00 +21°C° 0 mm 3 mps 655 mmHg 24%
    02:00 +21°C° 0 mm 3 mps 654 mmHg 24%
    03:00 +21°C° 0 mm 3 mps 654 mmHg 25%
    04:00 +20°C° 0 mm 3 mps 654 mmHg 25%
    05:00 +20°C° 0 mm 3 mps 654 mmHg 25%
    06:00 +22°C° 0 mm 4 mps 655 mmHg 23%
    07:00 +25°C° 0 mm 4 mps 656 mmHg 22%
    08:00 +27°C° 0 mm 5 mps 657 mmHg 20%
    09:00 +29°C° 0 mm 5 mps 657 mmHg 18%
    10:00 +32°C° 0 mm 4 mps 657 mmHg 16%
    11:00 +34°C° 0 mm 4 mps 658 mmHg 14%
    12:00 +35°C° 0 mm 5 mps 657 mmHg 13%
    13:00 +36°C° 0 mm 5 mps 657 mmHg 13%
    14:00 +36°C° 0 mm 5 mps 656 mmHg 12%
    15:00 +36°C° 0 mm 5 mps 656 mmHg 13%
    16:00 +35°C° 0 mm 5 mps 655 mmHg 14%
    17:00 +34°C° 0 mm 5 mps 655 mmHg 14%
    18:00 +32°C° 0 mm 5 mps 655 mmHg 18%
    19:00 +29°C° 0 mm 4 mps 655 mmHg 21%
    20:00 +27°C° 0 mm 4 mps 656 mmHg 25%
    21:00 +26°C° 0 mm 4 mps 656 mmHg 29%
    22:00 +25°C° 0 mm 4 mps 656 mmHg 33%
    23:00 +23°C° 0 mm 4 mps 656 mmHg 38%

    21 September, Friday

    Time Temperature Precipitation Wind Pressure Humidity
    00:00 +22°C° 0 mm 4 mps 656 mmHg 46%
    01:00 +21°C° 0 mm 4 mps 656 mmHg 53%
    02:00 +20°C° 0 mm 4 mps 655 mmHg 61%
    03:00 +19°C° 0 mm 4 mps 655 mmHg 65%
    04:00 +19°C° 0 mm 4 mps 655 mmHg 69%
    05:00 +18°C° 0 mm 3 mps 655 mmHg 73%
    06:00 +20°C° 0 mm 4 mps 656 mmHg 64%
    07:00 +22°C° 0 mm 4 mps 657 mmHg 55%
    08:00 +23°C° 0 mm 5 mps 657 mmHg 45%
    09:00 +27°C° 0 mm 5 mps 658 mmHg 38%
    10:00 +29°C° 0 mm 5 mps 658 mmHg 30%
    11:00 +33°C° 0 mm 5 mps 658 mmHg 22%
    12:00 +33°C° 0 mm 4 mps 657 mmHg 20%
    13:00 +34°C° 0 mm 4 mps 657 mmHg 18%
    14:00 +35°C° 0 mm 4 mps 656 mmHg 16%
    15:00 +34°C° 0 mm 4 mps 656 mmHg 17%
    16:00 +34°C° 0 mm 4 mps 655 mmHg 17%
    17:00 +33°C° 0 mm 4 mps 655 mmHg 17%
    18:00 +30°C° 0 mm 4 mps 655 mmHg 21%
    19:00 +27°C° 0 mm 4 mps 655 mmHg 25%
    20:00 +25°C° 0 mm 3 mps 655 mmHg 29%
    21:00 +24°C° 0 mm 3 mps 655 mmHg 32%
    22:00 +22°C° 0 mm 3 mps 655 mmHg 35%
    23:00 +21°C° 0 mm 3 mps 655 mmHg 38%

    22 September, Saturday

    Time Temperature Precipitation Wind Pressure Humidity
    00:00 +20°C° 0 mm 3 mps 655 mmHg 42%
    01:00 +19°C° 0 mm 3 mps 654 mmHg 45%
    02:00 +19°C° 0 mm 3 mps 654 mmHg 48%
    03:00 +18°C° 0 mm 3 mps 654 mmHg 51%
    04:00 +17°C° 0 mm 3 mps 654 mmHg 53%
    05:00 +17°C° 0 mm 2 mps 654 mmHg 56%
    06:00 +19°C° 0 mm 3 mps 655 mmHg 49%
    07:00 +22°C° 0 mm 3 mps 656 mmHg 41%
    08:00 +25°C° 0 mm 4 mps 657 mmHg 34%
    09:00 +27°C° 0 mm 3 mps 657 mmHg 27%
    10:00 +30°C° 0 mm 3 mps 657 mmHg 20%
    11:00 +33°C° 0 mm 3 mps 657 mmHg 14%
    12:00 +34°C° 0 mm 3 mps 657 mmHg 12%
    13:00 +35°C° 0 mm 3 mps 656 mmHg 11%
    14:00 +36°C° 0 mm 3 mps 655 mmHg 9%
    15:00 +35°C° 0 mm 3 mps 655 mmHg 10%
    16:00 +34°C° 0 mm 4 mps 655 mmHg 11%
    17:00 +34°C° 0 mm 4 mps 654 mmHg 11%
    18:00 +30°C° 0 mm 4 mps 655 mmHg 14%
    19:00 +27°C° 0 mm 4 mps 655 mmHg 16%
    20:00 +25°C° 0 mm 4 mps 655 mmHg 19%
    21:00 +23°C° 0 mm 4 mps 655 mmHg 21%
    22:00 +22°C° 0 mm 4 mps 655 mmHg 24%
    23:00 +20°C° 0 mm 4 mps 655 mmHg 26%

    23 September, Sunday

    Time Temperature Precipitation Wind Pressure Humidity
    00:00 +20°C° 0 mm 3 mps 654 mmHg 29%
    01:00 +19°C° 0 mm 3 mps 654 mmHg 32%
    02:00 +18°C° 0 mm 3 mps 654 mmHg 35%
    03:00 +18°C° 0 mm 3 mps 654 mmHg 37%
    04:00 +17°C° 0 mm 3 mps 654 mmHg 39%
    05:00 +16°C° 0 mm 3 mps 654 mmHg 41%
    06:00 +19°C° 0 mm 3 mps 655 mmHg 36%
    07:00 +22°C° 0 mm 4 mps 656 mmHg 30%
    08:00 +25°C° 0 mm 4 mps 657 mmHg 25%
    09:00 +28°C° 0 mm 4 mps 657 mmHg 21%
    10:00 +30°C° 0 mm 4 mps 657 mmHg 17%
    11:00 +33°C° 0 mm 3 mps 657 mmHg 13%
    12:00 +34°C° 0 mm 3 mps 657 mmHg 12%
    13:00 +35°C° 0 mm 3 mps 656 mmHg 11%
    14:00 +36°C° 0 mm 3 mps 655 mmHg 10%
    15:00 +35°C° 0 mm 4 mps 655 mmHg 11%
    16:00 +34°C° 0 mm 4 mps 655 mmHg 12%
    17:00 +33°C° 0 mm 4 mps 655 mmHg 13%
    18:00 +30°C° 0 mm 4 mps 655 mmHg 17%
    19:00 +27°C° 0 mm 4 mps 655 mmHg 22%
    20:00 +25°C° 0 mm 3 mps 655 mmHg 27%
    21:00 +24°C° 0 mm 3 mps 655 mmHg 30%
    22:00 +22°C° 0 mm 4 mps 655 mmHg 32%
    23:00 +21°C° 0 mm 4 mps 655 mmHg 35%
    Show more